Weather History for Paynesville, MN

Change the Weather History Date:

Thursday, November 1, 2012

  Actual Average (KLJF) Record (KLJF)
Temperature  
Mean Temperature 36 °F -  
Max Temperature 45 °F 50 °F 71 °F (1990)
Min Temperature 26 °F 32 °F 10 °F (1951)
Degree Days  
Heating Degree Days 30    
Moisture  
Dew Point 26 °F    
Average Humidity 65    
Maximum Humidity 85    
Minimum Humidity 41    
Precipitation  
Precipitation 0.00 in - - ()
Sea Level Pressure  
Sea Level Pressure 30.02 in    
Wind  
Wind Speed 5 mph (NNW)    
Max Wind Speed 15 mph    
Max Gust Speed 20 mph    
Visibility 10 miles    
Events      
Averages and records for this station are not official NWS values.
T = Trace of Precipitation, MM = Missing Value Source: NWS Daily Summary

Daily Weather History Graph

Daily Weather History Graph

Search for Another Location

Airport:

Trip Planner

Search our weather history database for the weather conditions in past years. The results will help you decide how hot, cold, wet, or windy it might be!

Date:

Astronomy

Nov. 01, 2012 Rise Set
Actual Time 7:58 AM CDT 6:05 PM CDT
Civil Twilight 7:27 AM CDT 6:36 PM CDT
Nautical Twilight 6:53 AM CDT 7:11 PM CDT
Astronomical Twilight 6:18 AM CDT 7:45 PM CDT
Moon 7:57 PM CDT (11/1) 10:38 AM CDT (11/1)
Length of Visible Light 11h 08m
Length of Day
10h 06m
Waning Gibbous, 93% of the Moon is Illuminated
Nov 1
Waning Gibbous
Nov 6
Last Quarter
Nov 13
New
Nov 20
First Quarter
Nov 28
Full

Hourly Weather History & Observations

Time (CDT) Temp. Windchill Dew Point Humidity Pressure Visibility Wind Dir Wind Speed Gust Speed Precip Events Conditions
12:14 AM 42.1 °F - 32.0 °F 67% 29.94 in 10.0 mi Calm Calm - N/A   Overcast
12:33 AM 41.2 °F - 31.8 °F 69% 29.94 in 10.0 mi Calm Calm - N/A   Overcast
12:53 AM 41.9 °F - 31.6 °F 67% 29.94 in 10.0 mi Calm Calm - N/A   Overcast
1:13 AM 45.1 °F 42.8 °F 33.1 °F 63% 29.95 in 10.0 mi NW 4.6 mph - N/A   Overcast
1:33 AM 43.7 °F - 33.3 °F 67% 29.96 in 10.0 mi Calm Calm - N/A   Scattered Clouds
1:54 AM 42.6 °F 39.9 °F 33.4 °F 70% 29.96 in 10.0 mi NW 4.6 mph - N/A   Scattered Clouds
2:13 AM 41.2 °F 38.2 °F 33.6 °F 74% 29.96 in 10.0 mi NW 4.6 mph - N/A   Scattered Clouds
2:34 AM 40.5 °F 37.3 °F 34.9 °F 80% 29.97 in 10.0 mi NW 4.6 mph - N/A   Scattered Clouds
2:53 AM 39.6 °F 34.7 °F 34.7 °F 83% 29.97 in 10.0 mi NW 6.9 mph - N/A   Clear
3:13 AM 39.0 °F 32.8 °F 34.3 °F 83% 29.97 in 10.0 mi NW 9.2 mph - N/A   Clear
3:34 AM 38.3 °F 33.2 °F 34.2 °F 85% 29.97 in 10.0 mi NW 6.9 mph - N/A   Clear
3:53 AM 38.3 °F 34.8 °F 34.2 °F 85% 29.97 in 10.0 mi NW 4.6 mph - N/A   Mostly Cloudy
4:13 AM 39.4 °F 34.5 °F 35.1 °F 84% 29.97 in 10.0 mi NW 6.9 mph - N/A   Overcast
4:34 AM 40.5 °F 34.1 °F 35.6 °F 83% 29.97 in 10.0 mi NW 10.4 mph - N/A   Overcast
5:13 AM 40.3 °F 34.9 °F 35.6 °F 83% 29.99 in 10.0 mi NNW 8.1 mph - N/A   Overcast
5:33 AM 40.1 °F 34.1 °F 34.3 °F 80% 29.99 in 10.0 mi NNW 9.2 mph - N/A   Overcast
5:54 AM 39.6 °F 34.7 °F 34.0 °F 80% 30.00 in 10.0 mi NNW 6.9 mph - N/A   Overcast
6:13 AM 39.0 °F 32.3 °F 33.3 °F 80% 30.00 in 10.0 mi NNW 10.4 mph - N/A   Overcast
6:33 AM 38.7 °F 33.6 °F 31.8 °F 76% 30.01 in 10.0 mi NNW 6.9 mph - N/A   Overcast
7:13 AM 38.7 °F 35.2 °F 31.1 °F 74% 30.01 in 10.0 mi NNW 4.6 mph - N/A   Overcast
7:33 AM 38.7 °F 35.2 °F 31.8 °F 76% 30.01 in 10.0 mi NNW 4.6 mph - N/A   Overcast
7:53 AM 38.8 °F 35.4 °F 31.1 °F 74% 30.01 in 10.0 mi NNW 4.6 mph - N/A   Overcast
8:33 AM 37.2 °F 29.1 °F 28.2 °F 70% 30.03 in 10.0 mi NNW 12.7 mph 17.3 mph N/A   Overcast
8:54 AM 36.5 °F 29.2 °F 27.0 °F 68% 30.04 in 10.0 mi NNW 10.4 mph - N/A   Overcast
9:13 AM 36.5 °F 31.0 °F 27.3 °F 69% 30.03 in 10.0 mi NNW 6.9 mph - N/A   Overcast
9:33 AM 36.9 °F 30.1 °F 27.3 °F 68% 30.03 in 10.0 mi NNW 9.2 mph - N/A   Overcast
9:53 AM 36.5 °F 27.4 °F 26.4 °F 67% 30.04 in 10.0 mi NNW 15.0 mph 18.4 mph N/A   Overcast
10:13 AM 36.5 °F 28.7 °F 25.5 °F 64% 30.04 in 10.0 mi North 11.5 mph 19.6 mph N/A   Mostly Cloudy
10:33 AM 37.4 °F 30.3 °F 25.5 °F 62% 30.04 in 10.0 mi North 10.4 mph - N/A   Scattered Clouds
10:53 AM 38.5 °F 31.1 °F 26.1 °F 61% 30.04 in 10.0 mi NNW 11.5 mph - N/A   Scattered Clouds
11:14 AM 38.5 °F 31.1 °F 26.2 °F 61% 30.04 in 10.0 mi NNW 11.5 mph 18.4 mph N/A   Scattered Clouds
11:33 AM 39.0 °F 31.8 °F 25.2 °F 58% 30.04 in 10.0 mi NNW 11.5 mph - N/A   Clear
11:53 AM 39.0 °F 31.8 °F 24.3 °F 55% 30.04 in 10.0 mi NNW 11.5 mph 18.4 mph N/A   Clear
12:13 PM 39.2 °F 33.0 °F 23.7 °F 54% 30.04 in 10.0 mi NNW 9.2 mph - N/A   Clear
12:33 PM 39.7 °F 33.7 °F 23.7 °F 53% 30.04 in 10.0 mi NNW 9.2 mph - N/A   Clear
12:54 PM 40.3 °F 35.5 °F 23.5 °F 51% 30.03 in 10.0 mi NW 6.9 mph - N/A   Clear
1:13 PM 41.0 °F 36.4 °F 23.7 °F 50% 30.02 in 10.0 mi NNW 6.9 mph 16.1 mph N/A   Clear
1:33 PM 41.5 °F 35.9 °F 23.7 °F 49% 30.02 in 10.0 mi North 9.2 mph - N/A   Clear
1:53 PM 41.4 °F 34.3 °F 21.9 °F 46% 30.02 in 10.0 mi NNW 12.7 mph - N/A   Clear
2:14 PM 42.4 °F 36.1 °F 22.6 °F 46% 30.01 in 10.0 mi NNW 11.5 mph 16.1 mph N/A   Clear
2:33 PM 41.7 °F 35.6 °F 22.3 °F 46% 30.01 in 10.0 mi North 10.4 mph 16.1 mph N/A   Clear
2:53 PM 41.5 °F 36.4 °F 21.9 °F 46% 30.00 in 10.0 mi NNW 8.1 mph 16.1 mph N/A   Clear
3:13 PM 41.9 °F 35.9 °F 21.0 °F 43% 30.01 in 10.0 mi NNW 10.4 mph 16.1 mph N/A   Clear
3:33 PM 41.9 °F 35.9 °F 19.9 °F 42% 30.01 in 10.0 mi NW 10.4 mph - N/A   Clear
3:53 PM 41.9 °F 37.5 °F 20.8 °F 43% 30.00 in 10.0 mi NNW 6.9 mph - N/A   Clear
4:13 PM 41.9 °F 36.3 °F 19.8 °F 41% 30.01 in 10.0 mi NNW 9.2 mph 16.1 mph N/A   Clear
4:53 PM 41.5 °F 35.4 °F 20.3 °F 43% 30.02 in 10.0 mi NW 10.4 mph - N/A   Clear
5:13 PM 41.0 °F 35.2 °F 20.1 °F 43% 30.02 in 10.0 mi NNW 9.2 mph - N/A   Clear
5:33 PM 39.4 °F 32.7 °F 19.9 °F 46% 30.02 in 10.0 mi North 10.4 mph 16.1 mph N/A   Clear
5:53 PM 37.8 °F 33.3 °F 19.8 °F 48% 30.02 in 10.0 mi North 5.8 mph - N/A   Clear
6:13 PM 36.5 °F 31.8 °F 20.1 °F 52% 30.02 in 10.0 mi North 5.8 mph - N/A   Clear
6:33 PM 35.4 °F 29.7 °F 20.8 °F 55% 30.02 in 10.0 mi North 6.9 mph - N/A   Clear
6:53 PM 33.8 °F 30.8 °F 20.8 °F 59% 30.03 in 10.0 mi North 3.5 mph - N/A   Clear
7:14 PM 32.2 °F 26.7 °F 21.0 °F 63% 30.04 in 10.0 mi North 5.8 mph - N/A   Clear
7:33 PM 32.0 °F 27.5 °F 20.8 °F 63% 30.04 in 10.0 mi North 4.6 mph - N/A   Clear
7:53 PM 30.9 °F 25.2 °F 21.0 °F 67% 30.04 in 10.0 mi NNE 5.8 mph - N/A   Clear
8:13 PM 30.2 °F - 20.7 °F 68% 30.05 in 10.0 mi Calm Calm - N/A   Clear
8:33 PM 29.5 °F 24.5 °F 20.7 °F 70% 30.05 in 10.0 mi NNE 4.6 mph - N/A   Clear
8:53 PM 29.1 °F - 20.7 °F 71% 30.05 in 10.0 mi Calm Calm - N/A   Clear
9:14 PM 28.4 °F - 20.7 °F 73% 30.05 in 10.0 mi Calm Calm - N/A   Clear
9:33 PM 28.4 °F - 20.8 °F 73% 30.06 in 10.0 mi Calm Calm - N/A   Clear
9:53 PM 28.4 °F - 20.8 °F 73% 30.06 in 10.0 mi Calm Calm - N/A   Clear
10:14 PM 27.5 °F 23.6 °F 20.7 °F 75% 30.06 in 10.0 mi NNE 3.5 mph - N/A   Clear
10:33 PM 27.3 °F - 20.7 °F 76% 30.06 in 10.0 mi Calm Calm - N/A   Clear
10:53 PM 27.5 °F - 20.3 °F 74% 30.06 in 10.0 mi Calm Calm - N/A   Clear
11:13 PM 26.6 °F - 20.3 °F 77% 30.06 in 10.0 mi Calm Calm - N/A   Clear
11:33 PM 26.4 °F - 20.3 °F 78% 30.07 in 10.0 mi Calm Calm - N/A   Clear
11:53 PM 26.8 °F - 20.5 °F 77% 30.07 in 10.0 mi Calm Calm - N/A   Clear